Bedford, Massachusetts, United States (01730)
Lat: 42.49N, Lon: 71.28W
Wx Zone: MAZ005
Local Info
Past Weather Observations for Thursday, July 23, 2015

NOTE: This archive is for the closest National Weather Service station to Bedford. Information may differ from the station used for current weather conditions.

Click here for Long-term Archive

Time Weather Temperature Dewpoint Humidity Pressure Winds Precip Visibility
23:56
Mostly Cloudy
64°F / 18°C 54°F / 12°C 68% 29.89 in
(1012 mb)
Calm - 10SM
22:56
Mostly Cloudy
66°F / 19°C 55°F / 13°C 68% 29.89 in
(1012 mb)
WNW 5.8 mph
(WNW 9 kph)
- 10SM
21:56
Overcast
68°F / 20°C 55°F / 13°C 64% 29.86 in
(1011 mb)
Calm - 10SM
20:56
Overcast
70°F / 21°C 55°F / 13°C 60% 29.86 in
(1011 mb)
WNW 3.5 mph
(WNW 6 kph)
- 10SM
19:56
Overcast
72°F / 22°C 55°F / 13°C 57% 29.86 in
(1011 mb)
NW 4.6 mph
(NW 7 kph)
0.00 in
(0.00 mm)
10SM
18:56
Overcast
72°F / 22°C 57°F / 14°C 61% 29.86 in
(1011 mb)
NW 4.6 mph
(NW 7 kph)
- 10SM
17:56
Partly Cloudy
75°F / 24°C 54°F / 12°C 47% 29.83 in
(1010 mb)
NW 5.8 mph
(NW 9 kph)
- 10SM
16:56
Mostly Cloudy
75°F / 24°C 52°F / 11°C 44% 29.83 in
(1010 mb)
NNW 6.9 mph
(NNW 11 kph)
- 10SM
15:56
Mostly Cloudy
77°F / 25°C 54°F / 12°C 44% 29.83 in
(1010 mb)
NW 8.1 mph
(NW 13 kph)
- 10SM
14:56
Partly Cloudy
81°F / 27°C 54°F / 12°C 39% 29.83 in
(1010 mb)
NNW 11.5 mph
(NNW 19 kph)
- 10SM
13:56
Overcast
77°F / 25°C 54°F / 12°C 44% 29.83 in
(1010 mb)
NNW 10.4 mph
(NNW 17 kph)
- 10SM
12:56
Mostly Cloudy
79°F / 26°C 54°F / 12°C 42% 29.83 in
(1010 mb)
W 10.4 mph
(W 17 kph)
- 10SM
11:56
Mostly Cloudy
77°F / 25°C 54°F / 12°C 44% 29.83 in
(1010 mb)
NW 11.5 mph
(NW 19 kph)
- 10SM
10:56
Mostly Cloudy
79°F / 26°C 54°F / 12°C 42% 29.83 in
(1010 mb)
NNW 10.4 mph
(NNW 17 kph)
- 10SM
09:56
Partly Cloudy
75°F / 24°C 55°F / 13°C 50% 29.86 in
(1011 mb)
WNW 11.5 mph
(WNW 19 kph)
- 10SM
08:56
Clear
73°F / 23°C 55°F / 13°C 53% 29.86 in
(1011 mb)
Variable 5.8 mph
(Variable 9 kph)
- 10SM
07:56
Clear
70°F / 21°C 55°F / 13°C 60% 29.86 in
(1011 mb)
Variable 6.9 mph
(Variable 11 kph)
- 10SM
06:56
Clear
66°F / 19°C 55°F / 13°C 68% 29.86 in
(1011 mb)
W 6.9 mph
(W 11 kph)
- 10SM
05:56
Clear
63°F / 17°C 55°F / 13°C 77% 29.86 in
(1011 mb)
SSW 4.6 mph
(SSW 7 kph)
- 10SM
04:56
Clear
57°F / 14°C 55°F / 13°C 94% 29.83 in
(1010 mb)
SSW 3.5 mph
(SSW 6 kph)
- 10SM
03:56
Clear
59°F / 15°C 55°F / 13°C 88% 29.83 in
(1010 mb)
Calm - 10SM
02:56
Clear
61°F / 16°C 57°F / 14°C 88% 29.8 in
(1009 mb)
SSW 5.8 mph
(SSW 9 kph)
- 10SM
01:56
Clear
61°F / 16°C 57°F / 14°C 88% 29.83 in
(1010 mb)
SSW 4.6 mph
(SSW 7 kph)
- 10SM
00:56
Mostly Cloudy
63°F / 17°C 57°F / 14°C 83% 29.83 in
(1010 mb)
SSW 4.6 mph
(SSW 7 kph)
- 10SM
Time Weather Temperature Dewpoint Humidity Pressure Winds Precip Visibility


Weather for websites

WeatherForYou.com, LLC is not responsible for any damages or problems caused by this service. Current weather conditions are obtained from the closest station including government and personal stations which may have varying degrees of accuracy. Weather forecasts are derived from the NOAA NDFD. Like all things, this site belongs to Jesus Christ... He just trusts us to maintain it. If you have any questions or comments email webmaster@weatherforyou.com

Copyright © 2015, WeatherForYou.com LLC. All rights reserved.